Torna al catalogo

STARLINK-32735

AttivoComunicazioniVLEO
NORAD 63044·PAYLOAD·🇺🇸 United States

Lanciato Feb 18, 2025 da Cape Canaveral Space Force Station

Loading…

Prossimi Passaggi (prossime 24 ore)

TLE

AggiornatoSource: CelesTrak SupGP

Epoca: Sep 14, 2026, 22:56 UTC

1 63044C 25034R   26257.95604167  .00020504  00000+0  60586-3 0  2576
2 63044  53.1581 107.7725 0001340  80.7810 183.7087 15.34377732    10

Traccia STARLINK-32735 in tempo reale con AllMySat

Download on the App Store